Location: Dumpton Point
(51.3500°N, 1.4433°E)
Time: 22:31:43
(UTC+00:00)

Vanguard 1 - Pass Details

Date: 27 September 2022
Orbit: 650 x 3831 km, 34.2° (Epoch: 03 December)

Event Time Altitude Azimuth Distance (km) Brightness Sun altitude
Rises 18:46:37 0° 252° (WSW) 4,500 14.6 -11.0°
Reaches altitude 10° 18:51:47 10° 229° (SW) 2,918 13.0 -11.8°
Maximum altitude 18:54:52 14° 202° (SSW) 2,350 12.1 -12.3°
Drops below altitude 10° 18:57:27 10° 172° (S) 2,365 11.8 -12.6°
Enters shadow 18:59:23 - 154° (SSE) 2,693 12.0 -12.9°
Sets 19:00:49 0° 144° (SE) 3,063 - -13.2°
